Location: ?
(35.3544°N, 139.4507°E)
Time: 13:11:16
(UTC+00:00)

Cosmos 1980 Rocket - Pass Details

Date: 03 August 2024
Orbit: 830 x 848 km, 71.0° (Epoch: 11 September)

Event Time Altitude Azimuth Distance (km) Brightness Sun altitude
Exits shadow 14:01:46 17° 47° (NE) 1,991 4.3 -36.2°
Drops below altitude 10° 14:03:13 10° 39° (NE) 2,469 5.0 -36.3°
Sets 14:05:49 0° 31° (NNE) 3,405 5.9 -36.4°
